Hourly Weather Kyurovschina

Today, 23 October, Friday

Time Temperature Precipitation Wind Pressure Humidity
00:00 +10°C° 0 mm 7 mps 741 mmHg 85%
01:00 +10°C° 0 mm 6 mps 742 mmHg 85%
02:00 +10°C° 0 mm 6 mps 743 mmHg 84%
03:00 +10°C° 0.2 mm 6 mps 742 mmHg 84%
04:00 +10°C° 0.2 mm 6 mps 742 mmHg 85%
05:00 +10°C° 0.2 mm 6 mps 742 mmHg 86%
06:00 +10°C° 0.1 mm 6 mps 742 mmHg 86%
07:00 +10°C° 0.1 mm 6 mps 742 mmHg 86%
08:00 +10°C° 0.1 mm 6 mps 741 mmHg 86%
09:00 +10°C° 0.1 mm 6 mps 741 mmHg 84%
10:00 +10°C° 0.1 mm 6 mps 741 mmHg 83%
11:00 +10°C° 0.1 mm 6 mps 741 mmHg 82%
12:00 +10°C° 0.3 mm 6 mps 740 mmHg 80%
13:00 +11°C° 0.3 mm 6 mps 740 mmHg 77%
14:00 +11°C° 0.3 mm 6 mps 740 mmHg 74%
15:00 +4°C° 0.4 mm 3 mps 745 mmHg 84%
16:00 +6°C° 0.4 mm 4 mps 743 mmHg 84%
17:00 +9°C° 0.4 mm 6 mps 741 mmHg 84%
18:00 +8°C° 0.1 mm 6 mps 742 mmHg 84%
19:00 +8°C° 0.1 mm 5 mps 743 mmHg 84%
20:00 +8°C° 0.1 mm 5 mps 743 mmHg 84%
21:00 +7°C° 0 mm 5 mps 744 mmHg 85%
22:00 +7°C° 0 mm 4 mps 745 mmHg 86%
23:00 +6°C° 0 mm 4 mps 745 mmHg 88%

Tomorrow, 24 October, Saturday

Time Temperature Precipitation Wind Pressure Humidity
00:00 +6°C° 0 mm 4 mps 746 mmHg 87%
01:00 +7°C° 0 mm 3 mps 746 mmHg 87%
02:00 +7°C° 0 mm 3 mps 746 mmHg 87%
03:00 +5°C° 0 mm 3 mps 746 mmHg 87%
04:00 +6°C° 0 mm 2 mps 746 mmHg 87%
05:00 +6°C° 0 mm 2 mps 746 mmHg 88%
06:00 +5°C° 0 mm 2 mps 746 mmHg 88%
07:00 +5°C° 0 mm 2 mps 746 mmHg 89%
08:00 +4°C° 0 mm 2 mps 746 mmHg 89%
09:00 +5°C° 0 mm 2 mps 747 mmHg 83%
10:00 +6°C° 0 mm 2 mps 747 mmHg 77%
11:00 +6°C° 0 mm 2 mps 747 mmHg 71%
12:00 +7°C° 0 mm 2 mps 747 mmHg 72%
13:00 +7°C° 0 mm 2 mps 747 mmHg 73%
14:00 +7°C° 0 mm 2 mps 747 mmHg 75%
15:00 +7°C° 0 mm 2 mps 747 mmHg 80%
16:00 +6°C° 0 mm 2 mps 747 mmHg 85%
17:00 +6°C° 0 mm 2 mps 747 mmHg 90%
18:00 +7°C° 0.5 mm 3 mps 747 mmHg 91%
19:00 +7°C° 0.5 mm 3 mps 747 mmHg 92%
20:00 +7°C° 0.5 mm 3 mps 747 mmHg 93%
21:00 +7°C° 0.3 mm 3 mps 747 mmHg 94%
22:00 +8°C° 0.3 mm 3 mps 747 mmHg 95%
23:00 +8°C° 0.3 mm 3 mps 747 mmHg 96%

Day after tomorrow, 25 October, Sunday

Time Temperature Precipitation Wind Pressure Humidity
00:00 +7°C° 0 mm 3 mps 748 mmHg 94%
01:00 +7°C° 0 mm 3 mps 748 mmHg 92%
02:00 +7°C° 0 mm 3 mps 749 mmHg 90%
03:00 +5°C° 0 mm 3 mps 749 mmHg 92%
04:00 +5°C° 0 mm 3 mps 750 mmHg 93%
05:00 +5°C° 0 mm 2 mps 750 mmHg 95%
06:00 +4°C° 0 mm 3 mps 751 mmHg 95%
07:00 +4°C° 0 mm 3 mps 751 mmHg 94%
08:00 +4°C° 0 mm 3 mps 752 mmHg 94%
09:00 +5°C° 0 mm 3 mps 752 mmHg 91%
10:00 +7°C° 0 mm 3 mps 753 mmHg 88%
11:00 +8°C° 0 mm 3 mps 753 mmHg 84%
12:00 +9°C° 0 mm 3 mps 753 mmHg 85%
13:00 +9°C° 0 mm 3 mps 754 mmHg 85%
14:00 +9°C° 0 mm 3 mps 754 mmHg 85%
15:00 +9°C° 0 mm 3 mps 754 mmHg 88%
16:00 +8°C° 0 mm 3 mps 754 mmHg 92%
17:00 +7°C° 0 mm 3 mps 754 mmHg 95%
18:00 +8°C° 0 mm 3 mps 755 mmHg 93%
19:00 +8°C° 0 mm 3 mps 755 mmHg 92%
20:00 +8°C° 0 mm 3 mps 755 mmHg 90%
21:00 +7°C° 0 mm 3 mps 755 mmHg 90%
22:00 +7°C° 0 mm 3 mps 755 mmHg 91%
23:00 +7°C° 0 mm 3 mps 755 mmHg 91%

, 26 October, Monday

Time Temperature Precipitation Wind Pressure Humidity
00:00 +7°C° 0 mm 3 mps 755 mmHg 92%
01:00 +6°C° 0 mm 4 mps 755 mmHg 93%
02:00 +6°C° 0 mm 4 mps 755 mmHg 94%
03:00 +6°C° 0 mm 4 mps 755 mmHg 94%
04:00 +6°C° 0 mm 4 mps 755 mmHg 95%
05:00 +6°C° 0 mm 4 mps 755 mmHg 95%
06:00 +6°C° 0 mm 4 mps 755 mmHg 95%
07:00 +6°C° 0 mm 4 mps 755 mmHg 95%
08:00 +6°C° 0 mm 4 mps 755 mmHg 95%
09:00 +7°C° 0 mm 4 mps 756 mmHg 91%
10:00 +8°C° 0 mm 4 mps 756 mmHg 87%
11:00 +10°C° 0 mm 4 mps 756 mmHg 83%
12:00 +11°C° 0 mm 4 mps 756 mmHg 81%
13:00 +11°C° 0 mm 4 mps 756 mmHg 80%
14:00 +11°C° 0 mm 4 mps 756 mmHg 78%
15:00 +11°C° 0 mm 4 mps 756 mmHg 82%
16:00 +10°C° 0 mm 4 mps 756 mmHg 87%
17:00 +8°C° 0 mm 4 mps 756 mmHg 91%
18:00 +8°C° 0 mm 4 mps 756 mmHg 91%
19:00 +8°C° 0 mm 4 mps 756 mmHg 91%
20:00 +7°C° 0 mm 4 mps 756 mmHg 92%
21:00 +7°C° 0 mm 4 mps 756 mmHg 92%
22:00 +7°C° 0 mm 4 mps 756 mmHg 92%
23:00 +7°C° 0 mm 5 mps 756 mmHg 93%

26 October, Monday

Time Temperature Precipitation Wind Pressure Humidity
00:00 +7°C° 0 mm 3 mps 755 mmHg 92%
01:00 +6°C° 0 mm 4 mps 755 mmHg 93%
02:00 +6°C° 0 mm 4 mps 755 mmHg 94%
03:00 +6°C° 0 mm 4 mps 755 mmHg 94%
04:00 +6°C° 0 mm 4 mps 755 mmHg 95%
05:00 +6°C° 0 mm 4 mps 755 mmHg 95%
06:00 +6°C° 0 mm 4 mps 755 mmHg 95%
07:00 +6°C° 0 mm 4 mps 755 mmHg 95%
08:00 +6°C° 0 mm 4 mps 755 mmHg 95%
09:00 +7°C° 0 mm 4 mps 756 mmHg 91%
10:00 +8°C° 0 mm 4 mps 756 mmHg 87%
11:00 +10°C° 0 mm 4 mps 756 mmHg 83%
12:00 +11°C° 0 mm 4 mps 756 mmHg 81%
13:00 +11°C° 0 mm 4 mps 756 mmHg 80%
14:00 +11°C° 0 mm 4 mps 756 mmHg 78%
15:00 +11°C° 0 mm 4 mps 756 mmHg 82%
16:00 +10°C° 0 mm 4 mps 756 mmHg 87%
17:00 +8°C° 0 mm 4 mps 756 mmHg 91%
18:00 +8°C° 0 mm 4 mps 756 mmHg 91%
19:00 +8°C° 0 mm 4 mps 756 mmHg 91%
20:00 +7°C° 0 mm 4 mps 756 mmHg 92%
21:00 +7°C° 0 mm 4 mps 756 mmHg 92%
22:00 +7°C° 0 mm 4 mps 756 mmHg 92%
23:00 +7°C° 0 mm 5 mps 756 mmHg 93%

27 October, Tuesday

Time Temperature Precipitation Wind Pressure Humidity
00:00 +6°C° 0 mm 5 mps 755 mmHg 92%
01:00 +6°C° 0 mm 5 mps 755 mmHg 91%
02:00 +6°C° 0 mm 5 mps 755 mmHg 91%
03:00 +6°C° 0 mm 5 mps 755 mmHg 90%
04:00 +6°C° 0 mm 5 mps 755 mmHg 90%
05:00 +7°C° 0 mm 5 mps 755 mmHg 89%
06:00 +7°C° 0 mm 5 mps 754 mmHg 89%
07:00 +7°C° 0 mm 5 mps 754 mmHg 89%
08:00 +7°C° 0 mm 5 mps 754 mmHg 88%
09:00 +7°C° 0 mm 5 mps 754 mmHg 88%
10:00 +8°C° 0 mm 5 mps 754 mmHg 87%
11:00 +8°C° 0 mm 5 mps 754 mmHg 86%
12:00 +8°C° 0 mm 5 mps 753 mmHg 86%
13:00 +9°C° 0 mm 5 mps 753 mmHg 86%
14:00 +10°C° 0 mm 4 mps 753 mmHg 87%
15:00 +10°C° 0 mm 4 mps 753 mmHg 88%
16:00 +10°C° 0 mm 4 mps 753 mmHg 89%
17:00 +10°C° 0 mm 4 mps 753 mmHg 90%
18:00 +10°C° 0 mm 4 mps 753 mmHg 90%
19:00 +11°C° 0 mm 4 mps 753 mmHg 89%
20:00 +11°C° 0 mm 4 mps 753 mmHg 89%
21:00 +11°C° 0 mm 4 mps 753 mmHg 89%
22:00 +11°C° 0 mm 4 mps 752 mmHg 89%
23:00 +10°C° 0 mm 5 mps 752 mmHg 89%

28 October, Wednesday

Time Temperature Precipitation Wind Pressure Humidity
00:00 +10°C° 0.2 mm 5 mps 752 mmHg 90%
01:00 +10°C° 0.2 mm 5 mps 752 mmHg 90%
02:00 +10°C° 0.2 mm 5 mps 751 mmHg 90%
03:00 +10°C° 0.1 mm 5 mps 751 mmHg 90%
04:00 +10°C° 0.1 mm 5 mps 751 mmHg 89%
05:00 +12°C° 0.1 mm 5 mps 751 mmHg 89%
06:00 +12°C° 0 mm 5 mps 751 mmHg 89%
07:00 +12°C° 0 mm 5 mps 751 mmHg 89%
08:00 +10°C° 0 mm 5 mps 751 mmHg 90%
09:00 +10°C° 0.1 mm 5 mps 752 mmHg 89%
10:00 +12°C° 0.1 mm 5 mps 752 mmHg 88%
11:00 +12°C° 0.1 mm 5 mps 752 mmHg 88%
12:00 +12°C° 0.1 mm 4 mps 753 mmHg 88%
13:00 +12°C° 0.1 mm 4 mps 753 mmHg 88%
14:00 +12°C° 0.1 mm 3 mps 753 mmHg 89%
15:00 +11°C° 0 mm 3 mps 753 mmHg 90%
16:00 +11°C° 0 mm 3 mps 754 mmHg 91%
17:00 +12°C° 0 mm 2 mps 754 mmHg 93%
18:00 +10°C° 0 mm 2 mps 754 mmHg 93%
19:00 +10°C° 0 mm 2 mps 754 mmHg 94%
20:00 +10°C° 0 mm 2 mps 754 mmHg 95%
21:00 +10°C° 0 mm 2 mps 754 mmHg 95%
22:00 +10°C° 0 mm 2 mps 754 mmHg 95%
23:00 +10°C° 0 mm 3 mps 754 mmHg 96%
Show more

We Need Your Consent

Meteoprog and our Service Providers may store and access personal data such as cookies, device identifiers or other similar technologies on your device and process such data to personalise content and ads, as well as provide social media features and to analyse the traffic.

  • Store and/or access information on your device

    Cookies, device identifiers or other information can be stored or accessed on your device for the purposes indicated above.

  • Personalised ads and content, ad and content measurement, audience insights, and products development

    Ads and content can be personalised based on a profile. More data can be added to better personalise ads and content. Ad and content performance can be measured. Insights about the audience who saw the ads and content can be derived. Such data can be used to develop or improve user’s experience, systems and software.

By clicking ‘I Agree’ you will allow the use of indicated cookies, device identifiers, web beacons or other similar technologies. Your settings can be changed in the browser on your device.

For certain purposes, legitimate interests may be relied on, rather than consent. You can read more about this in our Privacy and Cookie Policy.